User: anonymous   Login
Location: Brno
(49.2000°N, 16.6330°E)
Time: 09:22:06
(UTC+02:00)
Language:

Iridium 2 - Orbit

View from above orbital plane
View from above orbital plane
View from above satellite
View from above satellite

Ground track
Ground track

The orbit data is extracted from the following two-line orbital elements,

1 25527U 98066A   17083.92072583 +.00001812 +00000-0 +91601-4 0  9998
2 25527 085.5269 081.9862 0011177 050.3519 309.8705 15.16280001005597
Epoch (UTC): 24 March 2017 22:05:50
Eccentricity: 0.0011177
inclination: 85.5269°
perigee height: 509 km
apogee height: 525 km
right ascension of ascending node: 81.9862°
argument of perigee: 50.3519°
revolutions per day: 15.16280001
mean anomaly at epoch: 309.8705°
orbit number at epoch: 559

The dashed part of the orbit path shows where the satellite is in the earth's shadow,  

DLR